Location: De Greiden
(52.9496°N, 5.9137°E)
Time: 23:41:05
(UTC+00:00)

MOS 1 - Pass Details

Date: 24 January 2021
Orbit: 878 x 891 km, 99.1° (Epoch: 01 March)

Event Time Altitude Azimuth Distance (km) Brightness Sun altitude
Exits shadow 18:59:30 58° 44° (NE) 1,040 4.4 -25.7°
Drops below altitude 10° 19:04:39 10° 349° (N) 2,573 6.9 -26.5°
Sets 19:07:05 0° 346° (NNW) 3,517 7.6 -26.8°
